DB0RV-13 Weather Reports


Display with metric or nautical units.
time (UTC)temp
F
wind
direction
speed
MPH
gust
MPH
rain 1hr
in
rain 24hr
in
rain mn
in
humidity
%
barometer
mb
20260507200502 52 41 5.0 0.0 0.00 0.00 0.00 77 1014.6
20260507200002 52 47 5.0 0.0 0.00 0.00 0.00 77 1014.6
20260507195501 52 55 3.0 0.0 0.00 0.00 0.00 77 1014.6
20260507195001 52 65 5.0 0.0 0.00 0.00 0.00 77 1014.7
20260507194502 52 58 3.0 0.0 0.00 0.00 0.00 77 1014.6
20260507194001 52 36 7.0 0.0 0.00 0.00 0.00 76 1014.5
20260507193501 52 29 6.0 0.0 0.00 0.00 0.00 75 1014.4
20260507193002 52 38 8.0 0.0 0.00 0.00 0.00 74 1014.2
20260507192501 52 38 7.0 0.0 0.00 0.00 0.00 73 1014.3
20260507192002 53 45 8.0 0.0 0.00 0.00 0.00 72 1014.0
20260507191502 53 41 9.0 0.0 0.00 0.00 0.00 71 1014.0
20260507191001 53 45 5.0 0.0 0.00 0.00 0.00 69 1014.0
20260507190502 53 29 5.0 0.0 0.00 0.00 0.00 69 1013.9
20260507190002 54 43 5.0 0.0 0.00 0.00 0.00 68 1013.9
20260507185502 54 43 5.0 0.0 0.00 0.00 0.00 67 1013.8
20260507185001 55 21 7.0 0.0 0.00 0.00 0.00 64 1013.7
20260507184502 56 21 5.0 0.0 0.00 0.00 0.00 62 1013.7
20260507184002 56 7 3.0 0.0 0.00 0.00 0.00 62 1013.8
20260507183501 55 4 3.0 0.0 0.00 0.00 0.00 64 1013.6
20260507183002 56 6 4.0 0.0 0.00 0.00 0.00 62 1013.7
20260507182502 57 12 4.0 0.0 0.00 0.00 0.00 61 1013.6
20260507182003 57 18 5.0 0.0 0.00 0.00 0.00 61 1013.4
20260507181501 57 24 3.0 0.0 0.00 0.00 0.00 60 1013.4
20260507181002 57 23 5.0 0.0 0.00 0.00 0.00 60 1013.5
20260507180501 56 23 6.0 0.0 0.00 0.00 0.00 61 1013.4
20260507180002 57 28 5.0 0.0 0.00 0.00 0.00 58 1013.4
20260507175502 58 23 6.0 0.0 0.00 0.00 0.00 57 1013.3
20260507175001 58 22 6.0 0.0 0.00 0.00 0.00 56 1013.2
20260507174502 58 345 5.0 0.0 0.00 0.00 0.00 55 1013.2
20260507174001 58 342 4.0 0.0 0.00 0.00 0.00 57 1013.2
20260507173502 58 33 4.0 0.0 0.00 0.00 0.00 57 1013.3
20260507173001 58 75 4.0 0.0 0.00 0.00 0.00 57 1013.3
20260507172502 58 44 4.0 0.0 0.00 0.00 0.00 58 1013.2
20260507172001 57 42 4.0 0.0 0.00 0.00 0.00 58 1013.3
20260507171502 58 55 4.0 0.0 0.00 0.00 0.00 56 1013.1
20260507171002 57 41 3.0 0.0 0.00 0.00 0.00 57 1013.1
20260507170501 58 40 7.0 0.0 0.00 0.00 0.00 57 1013.0
20260507170002 59 23 6.0 0.0 0.00 0.00 0.00 56 1013.1
20260507165501 59 25 2.0 0.0 0.00 0.00 0.00 55 1013.2
20260507165002 59 44 3.0 0.0 0.00 0.00 0.00 57 1013.2
20260507164502 58 349 3.0 0.0 0.00 0.00 0.00 57 1013.1
20260507164002 58 341 7.0 0.0 0.00 0.00 0.00 57 1013.2
20260507163501 58 354 3.0 0.0 0.00 0.00 0.00 58 1013.0
20260507163002 58 343 10.0 0.0 0.00 0.00 0.00 60 1013.2
20260507162502 57 24 5.0 0.0 0.00 0.00 0.00 59 1013.1
20260507162002 58 54 6.0 0.0 0.00 0.00 0.00 58 1013.0
20260507161502 59 27 8.0 0.0 0.00 0.00 0.00 58 1013.1
20260507161001 58 342 7.0 0.0 0.00 0.00 0.00 57 1013.0
20260507160502 59 8 3.0 0.0 0.00 0.00 0.00 56 1013.2
20260507160001 59 359 6.0 0.0 0.00 0.00 0.00 57 1013.1
20260507155502 59 12 9.0 0.0 0.00 0.00 0.00 58 1013.0
20260507155001 58 11 6.0 0.0 0.00 0.00 0.00 57 1013.1
20260507154502 58 348 9.0 0.0 0.00 0.00 0.00 58 1013.2
20260507154002 57 12 5.0 0.0 0.00 0.00 0.00 59 1013.1
20260507153501 58 15 2.0 0.0 0.00 0.00 0.00 60 1013.1
20260507153004 57 329 6.0 0.0 0.00 0.00 0.00 60 1013.0
20260507152501 57 329 4.0 0.0 0.00 0.00 0.00 61 1013.1
20260507152002 58 355 2.0 0.0 0.00 0.00 0.00 60 1013.2
20260507151501 57 350 3.0 0.0 0.00 0.00 0.00 62 1013.1
20260507151002 58 6 3.0 0.0 0.00 0.00 0.00 62 1013.0
20260507150501 57 337 1.0 0.0 0.00 0.00 0.00 63 1013.1
20260507150002 58 57 4.0 0.0 0.00 0.00 0.00 62 1013.2
20260507145502 57 308 3.0 0.0 0.00 0.00 0.00 62 1013.2
20260507145002 57 25 7.0 0.0 0.00 0.00 0.00 64 1013.1
20260507144502 57 42 4.0 0.0 0.00 0.00 0.00 64 1013.2
20260507144001 57 340 8.0 0.0 0.00 0.00 0.00 65 1013.1
20260507143502 57 17 7.0 0.0 0.00 0.00 0.00 65 1013.1
20260507143001 57 344 6.0 0.0 0.00 0.00 0.00 64 1013.1
20260507142502 56 0 4.0 0.0 0.00 0.00 0.00 64 1013.2
20260507142001 57 328 9.0 0.0 0.00 0.00 0.00 65 1013.2
20260507141502 56 314 11.0 0.0 0.00 0.00 0.00 65 1012.9
20260507141002 56 345 14.0 0.0 0.00 0.00 0.00 65 1012.8
20260507140502 57 358 8.0 0.0 0.00 0.00 0.00 66 1013.0
20260507140002 57 350 7.0 0.0 0.00 0.00 0.00 66 1013.1
20260507135502 57 353 9.0 0.0 0.00 0.00 0.00 66 1013.0
20260507135002 57 344 11.0 0.0 0.00 0.00 0.00 65 1013.2
20260507134501 58 353 4.0 0.0 0.00 0.00 0.00 62 1013.1
20260507134002 57 262 1.0 0.0 0.00 0.00 0.00 64 1013.2
20260507133501 57 20 8.0 0.0 0.00 0.00 0.00 66 1013.1
20260507133002 58 27 11.0 0.0 0.00 0.00 0.00 64 1013.1
20260507132501 57 2 5.0 0.0 0.00 0.00 0.00 63 1013.2
20260507132002 58 333 2.0 0.0 0.00 0.00 0.00 63 1013.2
20260507131501 58 294 6.0 0.0 0.00 0.00 0.00 58 1013.3
20260507131001 59 307 2.0 0.0 0.00 0.00 0.00 57 1013.3
20260507130502 58 318 10.0 0.0 0.00 0.00 0.00 60 1013.2
20260507130002 57 325 1.0 0.0 0.00 0.00 0.00 61 1013.2
20260507125502 57 325 5.0 0.0 0.00 0.00 0.00 63 1013.2
20260507125001 56 311 6.0 0.0 0.00 0.00 0.00 63 1013.2
20260507124502 56 337 3.0 0.0 0.00 0.00 0.00 64 1013.2
20260507124001 55 325 3.0 0.0 0.00 0.00 0.00 64 1013.3
20260507123501 56 301 4.0 0.0 0.00 0.00 0.00 63 1013.3
20260507123002 56 302 4.0 0.0 0.00 0.00 0.00 64 1013.1
20260507122501 55 242 6.0 0.0 0.00 0.00 0.00 66 1013.4
20260507122002 56 248 8.0 0.0 0.00 0.00 0.00 67 1013.2
20260507121501 55 219 2.0 0.0 0.00 0.00 0.00 66 1013.3
20260507121002 55 310 4.0 0.0 0.00 0.00 0.00 65 1013.2
20260507120501 55 244 7.0 0.0 0.00 0.00 0.00 66 1013.2
20260507120002 55 279 4.0 0.0 0.00 0.00 0.00 68 1013.2
20260507115501 55 247 1.0 0.0 0.00 0.00 0.00 69 1013.3
20260507115002 54 296 5.0 0.0 0.00 0.00 0.00 69 1013.4
20260507114501 55 319 8.0 0.0 0.00 0.00 0.00 67 1013.4
20260507114002 55 253 4.0 0.0 0.00 0.00 0.00 70 1013.4
20260507113502 53 265 8.0 0.0 0.00 0.00 0.00 68 1013.4
20260507113001 54 308 1.0 0.0 0.00 0.00 0.00 68 1013.5
20260507112504 54 266 6.0 0.0 0.00 0.00 0.00 70 1013.5
20260507112001 53 279 8.0 0.0 0.00 0.00 0.00 68 1013.5
20260507111503 54 247 6.0 0.0 0.00 0.00 0.00 70 1013.5
20260507111001 54 301 3.0 0.0 0.00 0.00 0.00 68 1013.5
20260507110503 54 327 7.0 0.0 0.00 0.00 0.00 70 1013.5
20260507110001 54 270 7.0 0.0 0.00 0.00 0.00 69 1013.5
20260507105501 54 268 1.0 0.0 0.00 0.00 0.00 71 1013.5
20260507105001 53 280 5.0 0.0 0.00 0.00 0.00 71 1013.6
20260507104502 53 248 6.0 0.0 0.00 0.00 0.00 70 1013.6
20260507104002 53 244 6.0 0.0 0.00 0.00 0.00 73 1013.6
20260507103501 52 240 6.0 0.0 0.00 0.00 0.00 74 1013.6
20260507103002 52 245 6.0 0.0 0.00 0.00 0.00 73 1013.7
20260507102501 52 270 10.0 0.0 0.00 0.00 0.00 71 1013.7
20260507102002 53 246 7.0 0.0 0.00 0.00 0.00 73 1013.7
20260507101501 53 249 2.0 0.0 0.00 0.00 0.00 73 1013.7
20260507101002 53 250 3.0 0.0 0.00 0.00 0.00 74 1013.7
20260507100501 51 298 6.0 0.0 0.00 0.00 0.00 73 1013.7
20260507100002 52 270 13.0 0.0 0.00 0.00 0.00 75 1013.6
20260507095502 51 252 5.0 0.0 0.00 0.00 0.00 77 1013.6
20260507095002 51 238 6.0 0.0 0.00 0.00 0.00 78 1013.7
20260507094502 51 281 6.0 0.0 0.00 0.00 0.00 77 1013.7
20260507094001 51 247 4.0 0.0 0.00 0.00 0.00 78 1013.6
20260507093502 51 265 2.0 0.0 0.00 0.00 0.00 78 1013.5
20260507093001 51 258 7.0 0.0 0.00 0.00 0.00 77 1013.5
20260507092502 50 286 4.0 0.0 0.00 0.00 0.00 78 1013.5
20260507092001 50 279 5.0 0.0 0.00 0.00 0.00 78 1013.5
20260507091502 50 294 3.0 0.0 0.00 0.00 0.00 80 1013.5
20260507091002 50 245 6.0 0.0 0.00 0.00 0.00 80 1013.4
20260507090501 50 195 3.0 0.0 0.00 0.00 0.00 81 1013.4
20260507090002 50 276 6.0 0.0 0.00 0.00 0.00 82 1013.4
20260507085501 50 227 9.0 0.0 0.00 0.00 0.00 82 1013.4
20260507085002 50 285 12.0 0.0 0.00 0.00 0.00 83 1013.4
20260507084502 49 205 6.0 0.0 0.00 0.00 0.00 83 1013.3
20260507084002 49 266 1.0 0.0 0.00 0.00 0.00 85 1013.3
20260507083501 49 261 4.0 0.0 0.00 0.00 0.00 86 1013.3
20260507083001 49 281 4.0 0.0 0.00 0.00 0.00 86 1013.2
20260507082502 48 272 6.0 0.0 0.00 0.00 0.00 87 1013.3
20260507082001 48 268 5.0 0.0 0.00 0.00 0.00 87 1013.2
20260507081502 49 245 3.0 0.0 0.00 0.00 0.00 87 1013.2
20260507081001 49 256 4.0 0.0 0.00 0.00 0.00 87 1013.2
20260507080502 49 239 3.0 0.0 0.00 0.00 0.00 88 1013.2
20260507080001 48 241 1.0 0.0 0.00 0.00 0.00 88 1013.2
20260507075501 48 256 6.0 0.0 0.00 0.00 0.00 89 1013.2
20260507075001 48 277 5.0 0.0 0.00 0.00 0.00 89 1013.2
20260507074501 48 277 2.0 0.0 0.00 0.00 0.00 90 1013.2
20260507074002 48 244 3.0 0.0 0.00 0.00 0.00 91 1013.1
20260507073501 47 251 7.0 0.0 0.00 0.00 0.00 91 1013.0
20260507073002 47 258 4.0 0.0 0.00 0.00 0.00 91 1013.0
20260507072501 47 240 2.0 0.0 0.00 0.00 0.00 91 1012.9
20260507072002 47 243 8.0 0.0 0.00 0.00 0.00 92 1012.9
20260507071501 47 257 7.0 0.0 0.00 0.00 0.00 92 1012.8
20260507071001 47 240 7.0 0.0 0.00 0.00 0.00 93 1012.8
20260507070501 46 263 5.0 0.0 0.00 0.00 0.00 94 1012.9
20260507070002 46 254 5.0 0.0 0.00 0.00 0.00 94 1012.7
20260507065502 46 238 6.0 0.0 0.00 0.00 0.00 94 1012.6
20260507065001 46 237 7.0 0.0 0.00 0.00 0.00 94 1012.7
20260507064502 46 245 6.0 0.0 0.00 0.00 0.00 94 1012.6
20260507064001 46 242 3.0 0.0 0.00 0.00 0.00 93 1012.7
20260507063502 46 241 2.0 0.0 0.00 0.00 0.00 93 1012.6
20260507063002 46 207 6.0 0.0 0.00 0.00 0.00 93 1012.5
20260507062501 46 237 5.0 0.0 0.00 0.00 0.00 93 1012.6
20260507062001 46 242 4.0 0.0 0.00 0.00 0.00 92 1012.6
20260507061502 46 250 6.0 0.0 0.00 0.00 0.00 92 1012.5
20260507061002 46 234 3.0 0.0 0.00 0.00 0.00 92 1012.4
20260507060501 46 235 4.0 0.0 0.00 0.00 0.00 92 1012.4
20260507060002 46 236 5.0 0.0 0.00 0.00 0.00 91 1012.4
20260507055501 46 244 3.0 0.0 0.00 0.00 0.00 91 1012.4
20260507055002 46 243 7.0 0.0 0.00 0.00 0.00 90 1012.2
20260507054501 46 248 5.0 0.0 0.00 0.00 0.00 89 1012.2
20260507054002 46 253 4.0 0.0 0.00 0.00 0.00 88 1012.2
20260507053502 46 244 4.0 0.0 0.00 0.00 0.00 88 1012.2
20260507053002 46 264 4.0 0.0 0.00 0.00 0.00 87 1012.1
20260507052502 47 255 5.0 0.0 0.00 0.00 0.00 86 1012.0
20260507052001 47 255 8.0 0.0 0.00 0.00 0.00 86 1011.9
20260507051502 47 249 7.0 0.0 0.00 0.00 0.00 86 1011.8
20260507051002 46 238 3.0 0.0 0.00 0.00 0.00 85 1011.9
20260507050502 47 255 3.0 0.0 0.00 0.00 0.00 85 1011.7
20260507050001 47 247 7.0 0.0 0.00 0.00 0.00 85 1011.7
20260507045502 47 246 6.0 0.0 0.00 0.00 0.00 85 1011.6
20260507045001 46 272 6.0 0.0 0.00 0.00 0.00 84 1011.6
20260507044503 47 270 6.0 0.0 0.00 0.00 0.00 84 1011.5
20260507044002 46 275 3.0 0.0 0.00 0.00 0.00 85 1011.5
20260507043501 46 247 2.0 0.0 0.00 0.00 0.00 85 1011.4
20260507043002 46 252 4.0 0.0 0.00 0.00 0.00 85 1011.4
20260507042501 46 244 4.0 0.0 0.00 0.00 0.00 86 1011.3
20260507042002 46 248 7.0 0.0 0.00 0.00 0.00 85 1011.2
20260507041501 46 245 6.0 0.0 0.00 0.00 0.00 86 1011.1
20260507041002 46 251 8.0 0.0 0.00 0.00 0.00 86 1011.2
20260507040501 46 250 3.0 0.0 0.00 0.00 0.00 85 1011.2
20260507040002 46 253 7.0 0.0 0.00 0.00 0.00 86 1011.1
20260507035503 46 245 6.0 0.0 0.00 0.00 0.00 86 1011.1
20260507035002 46 247 5.0 0.0 0.00 0.00 0.00 87 1011.1
20260507034502 46 258 9.0 0.0 0.00 0.00 0.00 87 1011.1
20260507034001 46 260 7.0 0.0 0.00 0.00 0.00 87 1010.9
20260507033502 46 279 10.0 0.0 0.00 0.00 0.00 88 1011.1
20260507033001 46 260 5.0 0.0 0.00 0.00 0.00 89 1011.0
20260507032502 46 250 2.0 0.0 0.00 0.00 0.00 89 1010.9
20260507032001 46 242 3.0 0.0 0.00 0.00 0.00 89 1011.0
20260507031501 46 243 3.0 0.0 0.00 0.00 0.00 89 1010.9
20260507031002 46 237 4.0 0.0 0.00 0.00 0.00 88 1010.9
20260507030501 46 220 5.0 0.0 0.00 0.00 0.00 88 1010.8
20260507030001 46 219 6.0 0.0 0.00 0.00 0.00 87 1010.9
20260507025502 46 227 5.0 0.0 0.00 0.00 0.00 85 1010.9
20260507025001 46 223 4.0 0.0 0.00 0.00 0.00 85 1011.0
20260507024501 46 252 5.0 0.0 0.00 0.00 0.00 84 1010.9
20260507023501 46 251 6.0 0.0 0.00 0.00 0.00 83 1010.9
20260507023001 46 256 3.0 0.0 0.00 0.00 0.00 83 1010.8
20260507022502 47 298 6.0 0.0 0.00 0.00 0.00 83 1010.9
20260507022001 47 284 5.0 0.0 0.00 0.00 0.00 83 1010.8
20260507021501 47 268 6.0 0.0 0.00 0.00 0.00 83 1010.8
20260507021002 47 257 4.0 0.0 0.00 0.00 0.00 83 1010.8
20260507020501 47 255 4.0 0.0 0.00 0.00 0.00 83 1010.7
20260507020001 47 295 4.0 0.0 0.00 0.00 0.00 84 1010.8
20260507015502 47 265 7.0 0.0 0.00 0.00 0.00 83 1010.6
20260507015001 47 290 7.0 0.0 0.00 0.00 0.00 84 1010.7
20260507014502 47 268 5.0 0.0 0.00 0.00 0.00 83 1010.7
20260507014002 47 257 6.0 0.0 0.00 0.00 0.00 83 1010.7
20260507013501 47 295 7.0 0.0 0.00 0.00 0.00 83 1010.7
20260507013002 47 266 8.0 0.0 0.00 0.00 0.00 84 1010.7
20260507012502 47 270 8.0 0.0 0.00 0.00 0.00 84 1010.7
20260507012001 47 261 5.0 0.0 0.00 0.00 0.00 85 1010.7
20260507011501 47 245 6.0 0.0 0.00 0.00 0.00 86 1010.7
20260507011002 47 280 9.0 0.0 0.00 0.00 0.00 86 1010.6
20260507010501 46 262 2.0 0.0 0.00 0.00 0.00 88 1010.6
20260507010001 46 261 2.0 0.0 0.00 0.00 0.00 88 1010.6
20260507005502 46 243 6.0 0.0 0.00 0.00 0.00 88 1010.7
20260507005001 46 240 4.0 0.0 0.00 0.00 0.00 87 1010.6
20260507004501 46 235 6.0 0.0 0.00 0.00 0.00 88 1010.4
20260507004002 46 237 7.0 0.0 0.00 0.00 0.00 89 1010.4
20260507003501 46 261 4.0 0.0 0.00 0.00 0.00 92 1010.3
20260507003001 45 252 5.0 0.0 0.00 0.00 0.00 92 1010.3
20260507002502 45 244 7.0 0.0 0.00 0.00 0.00 92 1010.3
20260507002001 44 230 5.0 0.0 0.00 0.00 0.00 92 1010.5
20260507001501 44 229 3.0 0.0 0.00 0.00 0.00 92 1010.4
20260507001002 44 238 4.0 0.0 0.00 0.00 0.00 92 1010.4
20260507000501 44 235 2.0 0.0 0.00 0.00 0.00 92 1010.3
20260507000002 44 248 4.0 0.0 0.00 0.00 0.00 92 1010.5
20260506235502 44 235 3.0 0.0 0.00 0.00 0.00 92 1010.4
20260506235001 45 242 3.0 0.0 0.00 0.00 0.00 91 1010.4
20260506234502 45 251 2.0 0.0 0.00 0.00 0.00 91 1010.4
20260506234002 45 244 3.0 0.0 0.00 0.00 0.00 92 1010.4
20260506233501 45 242 2.0 0.0 0.00 0.00 0.00 92 1010.4
20260506233001 45 221 2.0 0.0 0.00 0.00 0.00 92 1010.4
20260506232502 45 217 3.0 0.0 0.00 0.00 0.00 92 1010.4
20260506232001 45 239 2.0 0.0 0.00 0.00 0.00 92 1010.3
20260506231504 45 239 2.0 0.0 0.00 0.00 0.00 92 1010.3
20260506231002 45 240 2.0 0.0 0.00 0.00 0.00 92 1010.2
20260506230501 45 236 4.0 0.0 0.00 0.00 0.00 93 1010.2
20260506230002 44 233 4.0 0.0 0.00 0.00 0.00 93 1010.3
20260506225502 44 250 3.0 0.0 0.00 0.00 0.00 93 1010.3
20260506225001 45 242 5.0 0.0 0.00 0.00 0.00 93 1010.2
20260506224501 45 227 5.0 0.0 0.00 0.00 0.00 93 1010.2
20260506224002 45 230 6.0 0.0 0.00 0.00 0.00 93 1010.1
20260506223501 45 228 4.0 0.0 0.00 0.00 0.00 93 1010.1
20260506223002 45 236 4.0 0.0 0.00 0.00 0.00 92 1010.3
20260506222503 44 213 5.0 0.0 0.00 0.00 0.00 92 1010.1
20260506222001 44 239 6.0 0.0 0.00 0.00 0.00 92 1010.1
20260506221502 44 240 5.0 0.0 0.00 0.00 0.00 92 1010.1
20260506221002 44 243 4.0 0.0 0.00 0.00 0.00 92 1010.1
20260506220501 45 237 4.0 0.0 0.00 0.00 0.00 91 1010.1
20260506220001 45 206 6.0 0.0 0.00 0.00 0.00 91 1010.0
20260506215503 45 212 4.0 0.0 0.00 0.00 0.00 90 1010.0
20260506215001 45 217 4.0 0.0 0.00 0.00 0.00 90 1010.0
20260506214501 45 208 4.0 0.0 0.00 0.00 0.00 89 1010.0
20260506214002 45 225 5.0 0.0 0.00 0.00 0.00 88 1010.1
20260506213501 46 241 6.0 0.0 0.00 0.00 0.00 88 1010.0
20260506213002 46 252 6.0 0.0 0.00 0.00 0.00 87 1010.0
20260506212502 46 247 5.0 0.0 0.00 0.00 0.00 87 1010.0
20260506212001 46 246 6.0 0.0 0.00 0.00 0.00 87 1010.0
20260506211501 46 248 6.0 0.0 0.00 0.00 0.00 87 1010.1
20260506211002 47 248 5.0 0.0 0.00 0.00 0.00 87 1010.0
20260506210501 46 242 6.0 0.0 0.00 0.00 0.00 88 1010.0
20260506210002 46 248 5.0 0.0 0.00 0.00 0.00 89 1009.9
20260506205502 46 248 4.0 0.0 0.00 0.00 0.00 89 1009.8
20260506205002 46 247 6.0 0.0 0.00 0.00 0.00 89 1009.7
20260506204501 46 241 2.0 0.0 0.00 0.00 0.00 89 1009.8
20260506204002 46 250 4.0 0.0 0.00 0.00 0.00 90 1009.8
20260506203501 46 248 3.0 0.0 0.00 0.00 0.00 89 1009.8
20260506203001 46 240 4.0 0.0 0.00 0.00 0.00 89 1009.8
20260506202503 46 246 4.0 0.0 0.00 0.00 0.00 90 1009.8
20260506202002 46 246 3.0 0.0 0.00 0.00 0.00 90 1009.8
20260506201501 46 236 3.0 0.0 0.00 0.00 0.00 89 1009.8
20260506201003 46 224 3.0 0.0 0.00 0.00 0.00 89 1009.9